Hourly Data Report for March 13, 2017

All times are specified in Local Standard Time (LST). Add 1 hour to adjust for Daylight Saving Time where and when it is observed.

TORONTO CITY
ONTARIO

43°40'00.000" N
79°24'00.000" W
112.50 m
6158355
71508
XTO

Download Data

Hourly Data (March 2017)
Hourly Data Report for March 13, 2017
TIME Temp Definition
°C
Dew Point Definition
°C
Rel Hum Definition
%
Wind Dir Definition
10's deg

Wind Spd Definition
km/h
Visibility Definition
km
Stn Press Definition
kPa
Hmdx Definition


Wind Chill Definition


Weather Definition


00:00 -9.5 -15.7 61 LegendMM LegendMM   101.81     LegendNANA
01:00 -9.9 -16.7 57 LegendMM LegendMM   101.84     LegendNANA
02:00 -9.8 -17.0 56 LegendMM LegendMM   101.86     LegendNANA
03:00 -10.2 -18.7 50 LegendMM LegendMM   101.81     LegendNANA
04:00 -10.0 -18.9 48 LegendMM LegendMM   101.79     LegendNANA
05:00 -9.9 -20.0 44 LegendMM LegendMM   101.79     LegendNANA
06:00 -9.7 -22.4 35 LegendMM LegendMM   101.85     LegendNANA
07:00 -9.2 -20.2 41 LegendMM LegendMM   101.88     LegendNANA
08:00 -8.9 -18.8 45 LegendMM LegendMM   101.85     LegendNANA
09:00 -7.9 -16.4 51 LegendMM LegendMM   101.76     LegendNANA
10:00 -7.0 -13.5 60 LegendMM LegendMM   101.68     LegendNANA
11:00 -6.1 -11.6 65 LegendMM LegendMM   101.67     LegendNANA
12:00 -6.3 -9.8 76 LegendMM LegendMM   101.63     LegendNANA
13:00 -6.0 -8.9 80 LegendMM LegendMM   101.53     LegendNANA
14:00 -6.5 -9.2 81 LegendMM LegendMM   101.47     LegendNANA
15:00 -6.8 -11.1 71 LegendMM LegendMM   101.41     LegendNANA
16:00 -6.9 -11.0 72 LegendMM LegendMM   101.35     LegendNANA
17:00 -7.4 -11.7 71 LegendMM LegendMM   101.33     LegendNANA
18:00 -7.6 -10.7 79 LegendMM LegendMM   101.30     LegendNANA
19:00 -7.9 -11.1 77 LegendMM LegendMM   101.30     LegendNANA
20:00 -7.9 -11.7 75 LegendMM LegendMM   101.29     LegendNANA
21:00 -8.1 -11.7 76 LegendMM LegendMM   101.25     LegendNANA
22:00 -7.9 -11.4 76 LegendMM LegendMM   101.18     LegendNANA
23:00 -8.1 -11.4 77 LegendMM LegendMM   101.12     LegendNANA

Notes on Data Quality.

Legend

  • E = Estimated
  • M = Missing
  • NA = Not Available
Date modified: